Location: Bavegemberg
(50.9500°N, 3.8833°E)
Time: 03:13:04
(UTC+00:00)

Okean 2 - Pass Details

Date: 23 May 2024
Orbit: 540 x 553 km, 82.5° (Epoch: 17 June)

Event Time Altitude Azimuth Distance (km) Brightness Sun altitude
Exits shadow 00:50:44 28° 157° (SSE) 1,041 4.3 -16.8°
Maximum altitude 00:52:32 51° 95° (E) 689 3.8 -16.7°
Drops below altitude 10° 00:56:25 10° 19° (NNE) 1,817 7.3 -16.5°
Sets 00:58:37 0° 15° (NNE) 2,715 8.7 -16.4°
